User: anonymous   Login
Location: Esterri de Aneo
(42.6284°N, 1.1223°E)
Time: 14:06:50
(UTC+00:00)
Language:

UWE-3 - Orbit

View from above orbital plane
View from above orbital plane
View from above satellite
View from above satellite

Ground track
Ground track

The orbit is defined by the following mean orbital elements,

1 39446U          26101.29577487 +.00000000 +00000-0 +32128-3 0 00007
2 39446  97.8649  56.9731 0049361 180.3259 179.7939 14.96515988    04
Epoch (UTC): 11 April 2026 07:05:54
Eccentricity: 0.0049361
inclination: 97.8649°
perigee height: 543 km
apogee height: 612 km
right ascension of ascending node: 56.9731°
argument of perigee: 180.3259°
revolutions per day: 14.96515988
mean anomaly at epoch: 179.7939°

The dashed part of the orbit path shows where the satellite is in the earth's shadow,  

DLR